Location: ???? ????
(41.4149°N, 22.8816°E)
Time: 14:47:14
(UTC+00:00)

Cosmos 1908 Rocket - Pass Details

Date: 14 July 2020
Orbit: 605 x 633 km, 82.5° (Epoch: 03 August)

Event Time Altitude Azimuth Distance (km) Brightness Sun altitude
Exits shadow 01:28:45 18° 182° (S) 1,553 5.2 -15.1°
Maximum altitude 01:32:03 82° 97° (E) 645 3.6 -14.7°
Drops below altitude 10° 01:36:32 10° 10° (N) 2,020 7.1 -14.2°
Sets 01:38:47 0° 9° (N) 2,930 8.0 -13.9°
